Vorticity
nan nan nan nan nan nan nan nan nan nan nan nan nan nan nan nan nan nan nan nan nan nan nan nan nan nan nan nan nan nan nan nan nan nan nan nan nan nan nan nan nan nan nan
nan 8 8 8 7 11 11 11 11 13 11 9 8 9 9 9 10 10 10 10 9 8 10 11 9 10 10 7 8 9 11 14 13 11 10 8 9 8 8 6 7 8 nan
nan 8 8 7 9 10 11 11 12 12 12 11 9 8 10 8 9 10 11 11 9 11 10 10 9 10 8 9 11 9 9 10 11 8 9 8 8 7 5 7 8 8 nan
nan 9 9 7 11 10 9 11 12 11 12 10 10 10 10 10 10 11 9 10 11 10 10 10 9 12 12 9 8 12 11 9 9 9 9 8 8 7 8 7 7 10 nan
nan 9 8 9 11 9 8 11 12 11 11 12 9 10 9 9 13 10 10 9 9 11 12 9 8 9 13 14 16 15 9 9 10 9 8 8 9 9 7 8 11 10 nan
nan 10 9 9 9 10 9 10 10 9 11 11 10 11 10 10 9 11 10 10 10 9 10 11 11 7 6 10 15 18 17 15 9 8 11 9 8 8 11 11 8 9 nan
nan 9 9 9 9 10 9 8 9 8 9 12 10 9 9 11 7 9 8 11 10 10 10 9 9 12 10 6 7 8 10 14 17 13 9 8 9 8 10 11 9 10 nan
nan 8 9 8 8 9 10 9 8 9 9 9 10 9 9 10 7 5 9 12 10 10 11 10 10 9 10 12 9 6 6 8 12 14 12 11 13 10 6 9 8 9 nan
nan 8 9 9 8 8 9 9 10 10 9 11 11 10 12 9 8 8 11 9 9 10 11 9 9 7 9 10 11 8 6 7 10 16 14 13 10 10 10 9 10 7 nan
nan 9 9 9 8 8 9 10 10 10 10 10 13 14 11 9 11 10 13 10 7 10 10 6 8 10 8 11 11 9 10 12 9 5 7 12 9 8 11 9 8 6 nan
nan 9 9 9 8 9 9 10 10 9 9 9 10 11 10 11 14 12 9 8 9 11 9 9 7 7 11 12 8 13 14 11 8 8 8 8 8 8 9 11 9 13 nan
nan 9 9 8 8 10 9 10 10 9 8 8 8 8 10 11 11 13 10 11 10 8 10 10 11 6 7 13 17 15 10 9 8 9 10 10 9 9 10 10 11 13 nan
nan 9 9 8 9 8 9 9 9 8 8 8 8 8 11 10 7 7 10 9 18 17 5 11 12 9 7 12 16 10 7 7 10 9 8 9 10 10 9 9 9 8 nan
nan 8 8 9 9 7 7 8 8 10 9 9 10 9 9 10 11 9 8 9 7 12 12 6 3 5 9 11 9 7 11 11 8 9 10 9 10 10 8 8 7 5 nan
nan 9 8 9 10 8 8 10 13 10 12 13 10 10 11 12 15 14 12 13 11 10 5 7 8 8 9 6 7 10 8 9 9 9 10 9 8 8 9 9 8 7 nan
nan 8 9 9 10 9 9 0 0 16 15 7 13 15 13 15 16 10 10 15 18 12 3 7 9 10 9 8 8 9 8 9 10 9 9 9 10 9 9 9 9 9 nan
nan 9 7 9 10 10 10 9 0 -0 4 8 9 5 19 22 6 8 8 8 10 9 9 10 9 9 9 9 9 9 9 10 10 9 10 10 9 10 10 9 9 9 nan
nan 7 8 11 9 10 10 9 10 9 6 5 8 12 14 14 12 10 7 2 4 8 13 10 10 10 10 10 10 10 10 10 10 10 10 10 10 10 9 8 10 11 nan
nan 8 9 11 10 10 10 10 10 10 10 10 8 7 8 10 11 10 6 4 7 9 9 8 11 10 10 10 10 10 11 10 11 10 10 10 10 10 9 10 10 12 nan
nan 10 9 8 10 10 9 10 10 10 10 10 10 11 6 3 5 5 8 9 9 10 10 10 9 9 11 11 10 11 11 11 10 10 10 10 10 10 11 11 11 13 nan
nan 11 10 8 11 10 10 10 9 10 9 10 11 13 14 7 7 8 9 9 9 9 10 11 10 10 10 11 11 10 10 11 10 10 10 11 11 10 10 11 12 10 nan
nan 11 12 8 9 11 11 10 10 10 9 9 10 13 11 8 9 10 10 10 10 10 10 10 10 11 11 11 11 11 11 10 10 10 10 11 11 11 11 12 13 11 nan
nan 10 11 10 9 9 11 11 10 11 10 10 10 10 8 9 9 10 11 11 11 12 11 11 11 9 11 12 12 11 11 10 11 11 10 11 10 12 12 13 13 11 nan
nan 12 10 11 10 9 10 10 9 10 11 11 10 11 9 10 12 11 10 11 11 11 11 11 13 11 8 8 9 9 10 14 11 15 13 9 10 12 12 13 14 13 nan
nan 13 10 11 12 12 10 11 10 11 10 10 11 11 10 11 11 12 12 11 11 12 11 11 13 13 11 9 8 8 10 16 13 13 17 15 14 12 10 12 15 14 nan
nan nan nan nan nan nan nan nan nan nan nan nan nan nan nan nan nan nan nan nan nan nan nan nan nan nan nan nan nan nan nan nan nan nan nan nan nan nan nan nan nan nan nan
CAPE
405 354 463 551 400 373 542 446 755 824 663 483 571 604 619 693 724 768 707 714 707 811 821 815 628 853 628 232 339 502 308 477 124 57 19 14 24 19 29 19 52 23 0
225 143 353 504 310 451 503 519 591 681 598 391 452 512 429 516 660 633 436 410 522 550 294 287 429 452 410 384 735 313 194 30 28 11 19 17 15 27 34 38 20 6 0
13 48 342 460 353 502 544 636 615 702 518 335 408 495 550 476 472 399 350 326 299 150 226 395 286 296 274 416 464 268 284 81 29 7 11 9 21 20 14 15 13 14 20
0 9 209 369 362 502 558 521 631 614 529 286 306 250 273 241 173 75 163 184 71 221 369 421 411 401 446 64 356 200 220 23 16 9 8 10 9 14 12 3 4 3 12
0 6 141 358 407 431 565 523 447 500 469 293 135 79 48 46 44 47 55 96 202 381 350 288 355 197 91 78 350 268 82 30 13 11 14 12 10 10 6 6 15 7 30
0 3 40 272 333 532 647 571 524 340 388 343 145 47 47 42 0 0 16 55 38 122 259 125 169 4 0 0 0 59 28 10 10 11 11 9 12 16 5 15 2 24 19
0 0 75 249 256 472 518 555 538 433 73 382 303 148 43 26 0 0 0 117 102 241 144 93 59 13 19 1 1 0 0 0 2 0 6 32 16 21 14 57 65 51 13
0 0 131 149 98 418 459 644 764 353 111 38 26 7 11 33 0 0 0 256 111 69 56 34 76 9 3 2 2 9 3 0 2 1 4 22 53 169 148 22 209 294 53
0 0 11 94 64 200 47 278 795 910 563 311 194 7 0 3 0 0 0 126 22 26 117 15 27 1 0 0 0 2 0 0 1 0 8 31 53 61 193 94 39 16 6
0 0 0 3 65 50 19 275 779 808 545 562 146 17 0 1 1 0 3 47 55 27 134 3 0 0 0 0 21 9 81 62 51 1 0 1 2 0 0 134 74 62 69
0 0 0 90 44 79 58 635 815 639 487 312 217 121 6 1 0 1 2 7 13 25 55 96 0 0 0 0 34 90 52 79 21 78 65 62 0 0 13 186 127 218 78
0 0 0 149 1 67 38 695 742 653 589 373 395 236 30 19 1 1 0 26 6 7 38 96 7 0 0 0 0 0 0 0 7 0 0 0 0 17 36 63 31 13 11
0 0 0 6 63 28 33 453 758 824 461 199 442 434 324 150 17 1 0 0 0 91 93 17 0 0 0 0 0 0 0 0 8 14 21 16 0 0 0 0 0 0 0
0 0 0 2 110 167 3 10 258 448 260 2 2 392 388 297 118 18 0 5 3 4 3 0 0 0 0 0 0 0 0 0 0 2 0 0 0 0 0 0 0 0 0
12 35 13 0 11 264 156 0 0 79 19 0 0 0 42 337 293 57 66 158 175 56 20 0 16 1 0 0 0 0 0 0 0 0 0 0 0 0 0 0 0 0 0
43 58 30 0 6 9 180 77 0 0 0 0 0 0 0 0 0 0 0 0 0 0 29 142 211 34 0 0 0 0 0 0 0 0 0 0 0 0 0 0 0 0 0
81 80 3 0 0 0 0 110 51 0 0 0 0 0 0 0 0 0 0 0 0 0 198 295 152 0 0 0 0 0 0 0 0 0 0 0 0 0 0 0 0 0 0
90 0 3 0 0 0 0 0 0 0 0 0 0 0 0 0 0 0 0 0 0 0 0 0 0 0 0 0 0 0 0 0 0 0 0 0 0 0 0 0 0 0 0
131 0 0 0 0 0 0 0 0 0 0 0 0 0 0 0 0 0 0 0 0 0 0 0 0 0 0 0 0 0 0 0 0 0 0 0 0 0 0 0 0 0 0
162 0 0 0 0 0 0 0 0 0 0 0 0 0 0 0 0 0 0 0 0 0 0 0 0 0 0 0 0 0 0 0 0 0 0 0 0 0 0 0 0 0 0
200 13 0 0 0 0 0 0 0 0 0 0 0 0 0 0 0 0 0 0 0 0 0 0 0 0 0 0 0 0 0 0 0 0 0 0 0 0 0 0 0 0 0
178 91 0 0 0 0 0 0 0 0 0 0 0 0 0 0 0 0 0 0 0 0 0 0 0 0 0 0 0 0 0 0 0 0 0 0 0 0 0 0 0 0 0
147 116 1 0 0 0 0 0 0 0 0 0 0 0 0 0 0 0 0 0 0 0 0 0 0 0 0 0 0 0 0 0 0 0 0 0 0 0 0 0 0 0 0
145 137 28 0 0 0 0 0 0 0 0 0 0 0 0 0 0 0 0 0 0 0 0 0 0 0 0 0 0 0 0 0 0 0 0 0 0 0 0 0 0 0 0
163 151 127 48 18 0 1 0 2 0 0 0 0 0 0 0 0 0 0 0 0 0 0 0 0 0 0 0 0 0 0 0 0 0 0 0 0 0 0 0 0 4 0
43 126 149 126 72 54 13 36 23 21 13 10 2 1 2 1 1 0 0 0 0 0 0 0 0 0 0 0 0 0 0 0 0 0 0 0 0 0 0 0 0 0 0